BLUEWALKER 3 DEB (54247 NORAD) Tracking and Keplerian Element Data

This shows tracking and keplerian element data for the satellite.

Feedback or suggestion? Click here.




ElementValue
Catalog54247
NameBLUEWALKER 3 DEB
Epoch Orbit966
Epoch Day13.82505611
Epoch Year2023
RAAN58.4324
Inclination53.2034
Eccentricity0.0011135
Argument of Perigee303.7224
Mean Anonmoly56.2711
Mean Motion15.19374601
Decay Rate6.758E-05
L11 54247U 22111AS 23013.82505611 .00006758 00000+0 32991-3 0 9998
L22 54247 53.2034 58.4324 0011135 303.7224 56.2711 15.19374601 9669



Live tracking and technical data element details for BLUEWALKER 3 DEB (NORAD 54247). BLUEWALKER 3 DEB can be tracked NOW for your location showing map with azimuth and elevation plus other details from your city location.







IsCatalogInMostPopularTable: catalog: 54247, numindb: 12
Update: records affected: 1



GetName: 54247 BLUEWALKER 3 DEB

Hit Count: updated at: Fri, 27 Jan 2023 20:13:33 GMT